Location: Albany
(35.0170°S, 117.8920°E)
Time: 09:05:45
(UTC+08:00)

A-11 Canister half - Pass Details

Date: 29 January 2021
Orbit: 1524 x 1684 km, 47.3° (Epoch: 25 February)

Event Time Altitude Azimuth Distance (km) Brightness Sun altitude
Rises 06:07:10 0° 240° (WSW) 4,918 11.2 7.4°
Reaches altitude 10° 06:10:31 10° 235° (SW) 3,912 10.8 8.0°
Maximum altitude 06:20:15 53° 159° (SSE) 1,930 10.1 9.9°
Drops below altitude 10° 06:29:36 10° 83° (E) 3,775 12.7 11.8°
Sets 06:32:45 0° 78° (ENE) 4,736 12.8 12.4°
